Location: Hamburg
(53.5554°N, 9.9941°E)
Time: 03:36:14
(UTC+02:00)

ISS - Pass Details

Date: 15 May 2021
Orbit: 417 x 422 km, 51.6° (Epoch: 15 June)

Event Time Altitude Azimuth Distance (km) Brightness Sun altitude
Rises 22:02:11 0° 202° (SSW) 2,354 -0.2 -6.2°
Reaches altitude 10° 22:04:59 10° 176° (S) 1,497 -1.4 -6.5°
Maximum altitude 22:06:51 14° 143° (SE) 1,270 -2.0 -6.7°
Drops below altitude 10° 22:08:44 10° 109° (ESE) 1,503 -1.5 -6.9°
Sets 22:11:33 0° 83° (E) 2,373 -0.3 -7.2°
